Time,TemperatureF,DewpointF,PressureIn,WindDirection,WindDirectionDegrees,WindSpeedMPH,WindSpeedGustMPH,Humidity,HourlyPrecipIn,Conditions,Clouds,dailyrainin,SolarRadiationWatts/m^2,SoftwareType,DateUTC
2013-09-08 00:01:00,72.0,47.0,-100.00,SE,128,11.0,20.0,41,0.00,,,0.00,0.000000,,2013-09-08 06:01:00,
2013-09-08 00:22:00,72.0,47.0,-100.00,SE,128,11.0,20.0,41,0.00,,,0.00,0.000000,,2013-09-08 06:22:00,
2013-09-08 00:33:00,72.0,47.0,-100.00,SE,128,11.0,20.0,41,0.00,,,0.00,0.000000,,2013-09-08 06:33:00,
2013-09-08 00:42:00,72.0,47.0,-100.00,SE,128,11.0,20.0,41,0.00,,,0.00,0.000000,,2013-09-08 06:42:00,
2013-09-08 00:53:00,72.0,47.0,-100.00,SE,128,11.0,20.0,41,0.00,,,0.00,0.000000,,2013-09-08 06:53:00,
2013-09-08 01:01:00,71.0,49.0,-100.00,SE,136,14.0,23.0,45,0.00,,,0.00,0.000000,,2013-09-08 07:01:00,
2013-09-08 01:42:00,71.0,49.0,-100.00,SE,136,14.0,23.0,45,0.00,,,0.00,0.000000,,2013-09-08 07:42:00,
2013-09-08 01:52:00,71.0,49.0,-100.00,SE,136,14.0,23.0,45,0.00,,,0.00,0.000000,,2013-09-08 07:52:00,
2013-09-08 02:01:00,70.0,49.0,-100.00,SE,132,14.0,21.0,47,0.00,,,0.00,0.000000,,2013-09-08 08:01:00,
2013-09-08 02:22:00,70.0,49.0,-100.00,SE,132,14.0,21.0,47,0.00,,,0.00,0.000000,,2013-09-08 08:22:00,
2013-09-08 02:32:00,70.0,49.0,-100.00,SE,132,14.0,21.0,47,0.00,,,0.00,0.000000,,2013-09-08 08:32:00,
2013-09-08 02:42:00,70.0,49.0,-100.00,SE,132,14.0,21.0,47,0.00,,,0.00,0.000000,,2013-09-08 08:42:00,
2013-09-08 02:52:00,70.0,49.0,-100.00,SE,132,14.0,21.0,47,0.00,,,0.00,0.000000,,2013-09-08 08:52:00,
2013-09-08 03:01:00,69.0,50.0,-100.00,ESE,118,11.0,22.0,50,0.00,,,0.00,0.000000,,2013-09-08 09:01:00,
2013-09-08 03:43:00,69.0,50.0,-100.00,ESE,118,11.0,22.0,50,0.00,,,0.00,0.000000,,2013-09-08 09:43:00,
2013-09-08 03:54:00,69.0,50.0,-100.00,ESE,118,11.0,22.0,50,0.00,,,0.00,0.000000,,2013-09-08 09:54:00,
2013-09-08 04:01:00,69.0,50.0,-100.00,SE,126,11.0,20.0,51,0.00,,,0.00,0.000000,,2013-09-08 10:01:00,
2013-09-08 04:43:00,69.0,50.0,-100.00,SE,126,11.0,20.0,51,0.00,,,0.00,0.000000,,2013-09-08 10:43:00,
2013-09-08 04:53:00,69.0,50.0,-100.00,SE,126,11.0,20.0,51,0.00,,,0.00,0.000000,,2013-09-08 10:53:00,
2013-09-08 05:01:00,69.0,51.0,-100.00,SE,132,10.0,16.0,52,0.00,,,0.00,0.000000,,2013-09-08 11:01:00,
2013-09-08 05:42:00,69.0,51.0,-100.00,SE,132,10.0,16.0,52,0.00,,,0.00,0.000000,,2013-09-08 11:42:00,
2013-09-08 05:52:00,69.0,51.0,-100.00,SE,132,10.0,16.0,52,0.00,,,0.00,0.000000,,2013-09-08 11:52:00,
2013-09-08 06:01:00,67.0,50.0,-100.00,ESE,121,8.0,17.0,54,0.00,,,0.00,0.000000,,2013-09-08 12:01:00,
2013-09-08 06:42:00,67.0,50.0,-100.00,ESE,121,8.0,17.0,54,0.00,,,0.00,0.000000,,2013-09-08 12:42:00,
2013-09-08 06:52:00,67.0,50.0,-100.00,ESE,121,8.0,17.0,54,0.00,,,0.00,0.000000,,2013-09-08 12:52:00,
2013-09-08 07:01:00,68.0,51.0,-100.00,ESE,104,8.0,13.0,54,0.00,,,0.00,2.000000,,2013-09-08 13:01:00,
2013-09-08 07:42:00,68.0,51.0,-100.00,ESE,104,8.0,13.0,54,0.00,,,0.00,2.000000,,2013-09-08 13:42:00,
2013-09-08 07:52:00,68.0,51.0,-100.00,ESE,104,8.0,13.0,54,0.00,,,0.00,2.000000,,2013-09-08 13:52:00,
2013-09-08 08:01:00,71.0,53.0,-100.00,ESE,114,8.0,14.0,53,0.00,,,0.00,75.000000,,2013-09-08 14:01:00,
2013-09-08 08:42:00,71.0,53.0,-100.00,ESE,114,8.0,14.0,53,0.00,,,0.00,75.000000,,2013-09-08 14:42:00,
2013-09-08 08:52:00,71.0,53.0,-100.00,ESE,114,8.0,14.0,53,0.00,,,0.00,75.000000,,2013-09-08 14:52:00,
2013-09-08 09:01:00,74.0,52.0,-100.00,ESE,118,7.0,15.0,47,0.00,,,0.00,331.000000,,2013-09-08 15:01:00,
2013-09-08 09:23:00,74.0,52.0,-100.00,ESE,118,7.0,15.0,47,0.00,,,0.00,331.000000,,2013-09-08 15:23:00,
2013-09-08 09:34:00,74.0,52.0,-100.00,ESE,118,7.0,15.0,47,0.00,,,0.00,331.000000,,2013-09-08 15:34:00,
2013-09-08 09:45:00,74.0,52.0,-100.00,ESE,118,7.0,15.0,47,0.00,,,0.00,331.000000,,2013-09-08 15:45:00,
2013-09-08 09:55:00,74.0,52.0,-100.00,ESE,118,7.0,15.0,47,0.00,,,0.00,331.000000,,2013-09-08 15:55:00,
2013-09-08 10:01:00,77.0,53.0,-100.00,SE,126,7.0,15.0,43,0.00,,,0.00,539.000000,,2013-09-08 16:01:00,
2013-09-08 10:44:00,77.0,53.0,-100.00,SE,126,7.0,15.0,43,0.00,,,0.00,539.000000,,2013-09-08 16:44:00,
2013-09-08 10:53:00,77.0,53.0,-100.00,SE,126,7.0,15.0,43,0.00,,,0.00,539.000000,,2013-09-08 16:53:00,
2013-09-08 11:01:00,79.0,52.0,-100.00,SSE,150,8.0,17.0,39,0.00,,,0.00,723.000000,,2013-09-08 17:01:00,
2013-09-08 11:43:00,79.0,52.0,-100.00,SSE,150,8.0,17.0,39,0.00,,,0.00,723.000000,,2013-09-08 17:43:00,
2013-09-08 11:53:00,79.0,52.0,-100.00,SSE,150,8.0,17.0,39,0.00,,,0.00,723.000000,,2013-09-08 17:53:00,
2013-09-08 12:01:00,80.0,51.0,-100.00,SSE,162,11.0,17.0,37,0.00,,,0.00,866.000000,,2013-09-08 18:01:00,
2013-09-08 12:22:00,80.0,51.0,-100.00,SSE,162,11.0,17.0,37,0.00,,,0.00,866.000000,,2013-09-08 18:22:00,
2013-09-08 12:32:00,80.0,51.0,-100.00,SSE,162,11.0,17.0,37,0.00,,,0.00,866.000000,,2013-09-08 18:32:00,
2013-09-08 12:42:00,80.0,51.0,-100.00,SSE,162,11.0,17.0,37,0.00,,,0.00,866.000000,,2013-09-08 18:42:00,
2013-09-08 12:52:00,80.0,51.0,-100.00,SSE,162,11.0,17.0,37,0.00,,,0.00,866.000000,,2013-09-08 18:52:00,
2013-09-08 13:01:00,82.0,51.0,-100.00,SSE,159,10.0,21.0,34,0.00,,,0.00,925.000000,,2013-09-08 19:01:00,
2013-09-08 13:42:00,82.0,51.0,-100.00,SSE,159,10.0,21.0,34,0.00,,,0.00,925.000000,,2013-09-08 19:42:00,
2013-09-08 13:52:00,82.0,51.0,-100.00,SSE,159,10.0,21.0,34,0.00,,,0.00,925.000000,,2013-09-08 19:52:00,
2013-09-08 14:01:00,84.0,50.0,-100.00,SSE,154,10.0,17.0,31,0.00,,,0.00,958.000000,,2013-09-08 20:01:00,
2013-09-08 14:42:00,84.0,50.0,-100.00,SSE,154,10.0,17.0,31,0.00,,,0.00,958.000000,,2013-09-08 20:42:00,
2013-09-08 14:53:00,84.0,50.0,-100.00,SSE,154,10.0,17.0,31,0.00,,,0.00,958.000000,,2013-09-08 20:53:00,
2013-09-08 15:01:00,85.0,49.0,-100.00,SSE,147,12.0,21.0,29,0.00,,,0.00,937.000000,,2013-09-08 21:01:00,
2013-09-08 15:44:00,85.0,49.0,-100.00,SSE,147,12.0,21.0,29,0.00,,,0.00,937.000000,,2013-09-08 21:44:00,
2013-09-08 15:54:00,85.0,49.0,-100.00,SSE,147,12.0,21.0,29,0.00,,,0.00,937.000000,,2013-09-08 21:54:00,
2013-09-08 16:01:00,83.0,46.0,-100.00,SE,141,12.0,22.0,27,0.00,,,0.00,843.000000,,2013-09-08 22:01:00,
2013-09-08 16:44:00,83.0,46.0,-100.00,SE,141,12.0,22.0,27,0.00,,,0.00,843.000000,,2013-09-08 22:44:00,
2013-09-08 16:53:00,83.0,46.0,-100.00,SE,141,12.0,22.0,27,0.00,,,0.00,843.000000,,2013-09-08 22:53:00,
2013-09-08 17:01:00,83.0,46.0,-100.00,ESE,114,8.0,23.0,27,0.00,,,0.00,564.000000,,2013-09-08 23:01:00,
2013-09-08 17:22:00,83.0,46.0,-100.00,ESE,114,8.0,23.0,27,0.00,,,0.00,564.000000,,2013-09-08 23:22:00,
2013-09-08 17:34:00,83.0,46.0,-100.00,ESE,114,8.0,23.0,27,0.00,,,0.00,564.000000,,2013-09-08 23:34:00,
2013-09-08 17:42:00,83.0,46.0,-100.00,ESE,114,8.0,23.0,27,0.00,,,0.00,564.000000,,2013-09-08 23:42:00,
2013-09-08 17:52:00,83.0,46.0,-100.00,ESE,114,8.0,23.0,27,0.00,,,0.00,564.000000,,2013-09-08 23:52:00,
2013-09-08 18:01:00,79.0,44.0,-100.00,East,97,8.0,17.0,29,0.00,,,0.00,298.000000,,2013-09-09 00:01:00,
2013-09-08 18:22:00,79.0,44.0,-100.00,East,97,8.0,17.0,29,0.00,,,0.00,298.000000,,2013-09-09 00:22:00,
2013-09-08 18:32:00,79.0,44.0,-100.00,East,97,8.0,17.0,29,0.00,,,0.00,298.000000,,2013-09-09 00:32:00,
2013-09-08 18:42:00,79.0,44.0,-100.00,East,97,8.0,17.0,29,0.00,,,0.00,298.000000,,2013-09-09 00:42:00,
2013-09-08 18:52:00,79.0,44.0,-100.00,East,97,8.0,17.0,29,0.00,,,0.00,298.000000,,2013-09-09 00:52:00,
2013-09-08 19:01:00,73.0,57.0,-100.00,East,93,7.0,19.0,57,0.03,,,0.03,28.000000,,2013-09-09 01:01:00,
2013-09-08 19:42:00,73.0,57.0,-100.00,East,93,7.0,19.0,57,0.03,,,0.03,28.000000,,2013-09-09 01:42:00,
2013-09-08 19:52:00,73.0,57.0,-100.00,East,93,7.0,19.0,57,0.03,,,0.03,28.000000,,2013-09-09 01:52:00,
2013-09-08 20:01:00,74.0,47.0,-100.00,SE,125,10.0,18.0,39,0.00,,,0.03,1.000000,,2013-09-09 02:01:00,
2013-09-08 20:22:00,74.0,47.0,-100.00,SE,125,10.0,18.0,39,0.00,,,0.03,1.000000,,2013-09-09 02:22:00,
2013-09-08 20:32:00,74.0,47.0,-100.00,SE,125,10.0,18.0,39,0.00,,,0.03,1.000000,,2013-09-09 02:32:00,
2013-09-08 20:42:00,74.0,47.0,-100.00,SE,125,10.0,18.0,39,0.00,,,0.03,1.000000,,2013-09-09 02:42:00,
2013-09-08 20:53:00,74.0,47.0,-100.00,SE,125,10.0,18.0,39,0.00,,,0.03,1.000000,,2013-09-09 02:53:00,
2013-09-08 21:01:00,74.0,47.0,-100.00,SE,125,9.0,21.0,38,0.00,,,0.03,0.000000,,2013-09-09 03:01:00,
2013-09-08 21:22:00,74.0,47.0,-100.00,SE,125,9.0,21.0,38,0.00,,,0.03,0.000000,,2013-09-09 03:22:00,
2013-09-08 21:34:00,74.0,47.0,-100.00,SE,125,9.0,21.0,38,0.00,,,0.03,0.000000,,2013-09-09 03:34:00,
2013-09-08 21:44:00,74.0,47.0,-100.00,SE,125,9.0,21.0,38,0.00,,,0.03,0.000000,,2013-09-09 03:44:00,
2013-09-08 21:55:00,74.0,47.0,-100.00,SE,125,9.0,21.0,38,0.00,,,0.03,0.000000,,2013-09-09 03:55:00,
2013-09-08 22:01:00,73.0,45.0,-100.00,SE,127,14.0,25.0,37,0.00,,,0.03,0.000000,,2013-09-09 04:01:00,
2013-09-08 22:43:00,73.0,45.0,-100.00,SE,127,14.0,25.0,37,0.00,,,0.03,0.000000,,2013-09-09 04:43:00,
2013-09-08 22:54:00,73.0,45.0,-100.00,SE,127,14.0,25.0,37,0.00,,,0.03,0.000000,,2013-09-09 04:54:00,
2013-09-08 23:01:00,71.0,45.0,-100.00,ESE,121,12.0,23.0,40,0.00,,,0.03,0.000000,,2013-09-09 05:01:00,
2013-09-08 23:23:00,71.0,45.0,-100.00,ESE,121,12.0,23.0,40,0.00,,,0.03,0.000000,,2013-09-09 05:23:00,
2013-09-08 23:34:00,71.0,45.0,-100.00,ESE,121,12.0,23.0,40,0.00,,,0.03,0.000000,,2013-09-09 05:34:00,
2013-09-08 23:43:00,71.0,45.0,-100.00,ESE,121,12.0,23.0,40,0.00,,,0.03,0.000000,,2013-09-09 05:43:00,
2013-09-08 23:53:00,71.0,45.0,-100.00,ESE,121,12.0,23.0,40,0.00,,,0.03,0.000000,,2013-09-09 05:53:00,